Ash Shahaniyah, Qatar

6:27 AM +03 on July 26, 2017 (GMT +0300)
Ash Shahaniyah

Weather History for WKQIR - September, 2013

Change the Weather History Date:

Sunday, September 15, 2013

  Actual Average Record
Temperature  
Mean Temperature 90 °F -  
Max Temperature 105 °F - - ()
Min Temperature 76 °F - - ()
Cooling Degree Days 26    
Growing Degree Days 40 (Base 50)    
Moisture  
Dew Point 65 °F    
Average Humidity 52    
Maximum Humidity 75    
Minimum Humidity 13    
Precipitation  
Precipitation 0.00 in - - ()
Sea Level Pressure  
Sea Level Pressure 29.67 in    
Wind  
Wind Speed 3 mph ()    
Max Wind Speed 10 mph    
Max Gust Speed -    
Visibility 5.8 miles    
Events      
T = Trace of Precipitation, MM = Missing Value Source: Averaged Metar Reports

Daily Weather History Graph

Daily Weather History Graph

Search for Another Location

Airport or City:

Trip Planner

Search our weather history database for the weather conditions in past years. The results will help you decide how hot, cold, wet, or windy it might be!

Date:

Astronomy

Sep. 15, 2013 Rise Set
Actual Time 5:20 AM +03 5:39 PM +03
Civil Twilight 4:57 AM +03 6:02 PM +03
Nautical Twilight 4:31 AM +03 6:28 PM +03
Astronomical Twilight 4:04 AM +03 6:55 PM +03
Moon 2:29 PM +03 (9/15) 12:54 AM +03 (9/15)
Length of Visible Light 13h 04m
Length of Day
12h 18m
Waxing Gibbous, 79% of the Moon is Illuminated
Sep 15
Waxing Gibbous
Sep 19
Full
Sep 27
Last Quarter
Oct 5
New
Oct 12
First Quarter

Hourly Weather History & Observations

Time (+03) Temp. Heat Index Dew Point Humidity Pressure Visibility Wind Dir Wind Speed Gust Speed Precip Events Conditions
12:55 AM 80.1 °F 82.3 °F 66.7 °F 64% 29.67 in 6.2 mi SSW 4.6 mph - N/A   Clear
1:55 AM 81.3 °F 84.1 °F 68.2 °F 64% 29.66 in 6.2 mi Calm Calm - N/A   Clear
2:55 AM 76.8 °F - 66.0 °F 69% 29.65 in 6.2 mi SW 5.8 mph - N/A   Clear
3:55 AM 76.5 °F - 68.2 °F 75% 29.67 in 6.2 mi Calm Calm - N/A   Clear
4:55 AM 78.3 °F - 69.8 °F 75% 29.68 in 6.2 mi WNW 5.8 mph - N/A   Clear
5:55 AM 79.3 °F - 70.3 °F 74% 29.71 in 6.2 mi Calm Calm - N/A   Clear
6:16 AM 78.8 °F - 69.8 °F 74% 29.71 in - NW 3.5 mph - N/A   Haze
6:17 AM 78.8 °F - 69.8 °F 74% 29.71 in 2.5 mi NNW 3.5 mph - N/A   Haze
6:20 AM 78.8 °F - 69.8 °F 74% 29.71 in - NW 3.5 mph - N/A   Haze
6:27 AM 78.8 °F - 69.8 °F 74% 29.71 in 2.5 mi WNW 3.5 mph - N/A   Haze
6:31 AM 78.8 °F - 69.8 °F 74% 29.71 in - WNW 4.6 mph - N/A   Haze
6:35 AM 78.8 °F - 69.8 °F 74% 29.71 in 3.7 mi WNW 4.6 mph - N/A   Haze
6:55 AM 81.0 °F 85.1 °F 71.4 °F 73% 29.72 in 5.6 mi WNW 3.5 mph - N/A   Haze
7:55 AM 87.3 °F 94.9 °F 73.2 °F 63% 29.73 in 6.2 mi West 6.9 mph - N/A   Clear
8:55 AM 92.3 °F 98.6 °F 70.7 °F 49% 29.73 in 6.2 mi WNW 5.8 mph - N/A   Clear
9:55 AM 96.6 °F 95.6 °F 57.7 °F 27% 29.73 in 6.2 mi West 5.8 mph - N/A   Clear
10:55 AM 99.3 °F 97.4 °F 54.3 °F 22% 29.71 in 6.2 mi NNW 4.6 mph - N/A   Clear
11:55 AM 101.5 °F - 52.7 °F 20% 29.68 in 6.2 mi Variable 3.5 mph - N/A   Clear
12:55 PM 103.5 °F - 46.6 °F 15% 29.66 in 6.2 mi NNW 5.8 mph - N/A   Clear
1:55 PM 104.7 °F - 47.3 °F 14% 29.63 in 6.2 mi Calm Calm - N/A   Clear
2:55 PM 105.3 °F - 45.9 °F 13% 29.62 in 6.2 mi Calm Calm - N/A   Clear
3:55 PM 104.4 °F - 43.7 °F 13% 29.61 in 6.2 mi North 6.9 mph - N/A   Clear
4:55 PM 100.0 °F 101.8 °F 62.1 °F 29% 29.60 in 6.2 mi ENE 10.4 mph - N/A   Clear
5:55 PM 95.5 °F 97.4 °F 64.2 °F 35% 29.62 in 6.2 mi East 9.2 mph - N/A   Clear
6:55 PM 93.4 °F 95.6 °F 65.3 °F 39% 29.62 in 6.2 mi East 5.8 mph - N/A   Clear
7:55 PM 91.6 °F 94.8 °F 67.1 °F 44% 29.64 in 6.2 mi East 4.6 mph - N/A   Clear
8:55 PM 90.0 °F 94.1 °F 68.5 °F 49% 29.65 in 6.2 mi East 4.6 mph - N/A   Clear
9:55 PM 88.9 °F 95.1 °F 71.6 °F 56% 29.64 in 6.2 mi East 5.8 mph - N/A   Clear
10:55 PM 87.6 °F 96.2 °F 73.9 °F 64% 29.62 in 6.2 mi East 3.5 mph - N/A   Clear
11:55 PM 83.8 °F 88.9 °F 71.2 °F 66% 29.61 in 6.2 mi Calm Calm - N/A   Clear